Flag for U.S.A. Weather past 2 weeks in Pasadena, California, U.S.A.

Now
79 °F

Sunny.


Feels Like: 80 °F
Forecast: 63 / 90 °F
Wind: 10 mph from South

Location: Burbank-Glendale-Pasadena Airport

Current Time: Jul 27, 2015 at 6:46:46 PM

Latest Report: Jul 27, 2015 at 5:53 PM


Visibility: 10 mi

Pressure: 29.82 "Hg

Humidity: 48%

Dew point: 58 °F

Location of PasadenaLocation

Historic Weather in Pasadena — Graph

°F

Pasadena temperature yesterday

Maximum temperature yesterday: 85 °F (at 12:53 PM)
Minimum temperature yesterday: 68 °F (at 6:53 AM)
Average temperature yesterday: 75 °F

Past Weeks' High & Low Weather Summary

 TemperatureHumidityPressure
High91 °F (Jul 25, 3:53 PM)90% (Jul 18, 9:53 PM)30.07 "Hg (Jul 18, 9:53 PM)
Low63 °F (Jul 17, 4:53 AM)21% (Jul 17, 3:53 PM)29.75 "Hg (Jul 17, 5:53 PM)
Average75 °F62%29.90 "Hg
* Reported Jul 12 5:53 PM — Jul 27 5:53 PM, Pasadena, Weather by CustomWeather, © 2015

Note: Actual official high and low records may vary slightly from our data, if they occured in-between our weather recording intervals... More about our weather records

Advertising

Pasadena weather history for previous 24 hours

 ConditionsComfort  
Time TempWeatherWind HumidityBarometerVisibility
5:53 PM
Mon, Jul 27
79 °FSunny.10 mph48%29.82 "Hg10 mi
4:53 PM80 °FSunny.8 mph49%29.82 "Hg10 mi
3:53 PM81 °FSunny.10 mph47%29.83 "Hg10 mi
2:53 PM81 °FSunny.10 mph47%29.85 "Hg10 mi
1:53 PM83 °FSunny.12 mph44%29.85 "Hg10 mi
12:53 PM82 °FSunny.9 mph43%29.87 "Hg10 mi
11:53 AM78 °FSunny.7 mph50%29.88 "Hg10 mi
10:53 AM76 °FSunny.No wind54%29.90 "Hg10 mi
9:53 AM72 °FPassing clouds.No wind61%29.91 "Hg10 mi
8:53 AM70 °FOvercast.3 mph66%29.91 "Hg8 mi
7:53 AM69 °FOvercast.No wind68%29.90 "Hg7 mi
6:53 AM68 °FOvercast.No wind73%29.89 "Hg8 mi
5:53 AM68 °FOvercast.6 mph73%29.88 "Hg10 mi
4:53 AM67 °FOvercast.No wind79%29.87 "Hg10 mi
4:00 AM66 °FPassing clouds.No wind83%29.91 "Hg10 mi
2:53 AM66 °FPassing clouds.5 mph81%29.86 "Hg10 mi
1:53 AM66 °FPassing clouds.5 mph81%29.88 "Hg10 mi
12:53 AM66 °FClear.5 mph81%29.88 "Hg10 mi
11:53 PM
Sun, Jul 26
68 °FClear.6 mph76%29.88 "Hg10 mi
10:53 PM69 °FClear.3 mph70%29.88 "Hg10 mi
9:53 PM70 °FClear.6 mph71%29.87 "Hg10 mi
8:53 PM71 °FSunny.7 mph68%29.86 "Hg10 mi
7:53 PM74 °FSunny.9 mph62%29.85 "Hg10 mi
6:53 PM78 °FSunny.9 mph48%29.84 "Hg10 mi
Weather by CustomWeather, © 2015

See weather overviewHow to use our weather pages